Year,Month,Day,Hour,Minute,Value (Times are PST for temperature in C)
2014,08,09,00,00,14.10
2014,08,09,00,01,14.10
2014,08,09,00,02,14.10
2014,08,09,00,03,14.10
2014,08,09,00,04,14.10
2014,08,09,00,05,14.10
2014,08,09,00,06,14.10
2014,08,09,00,07,14.10
2014,08,09,00,08,14.00
2014,08,09,00,09,14.00
2014,08,09,00,10,14.00
2014,08,09,00,11,14.00
2014,08,09,00,12,14.00
2014,08,09,00,13,14.00
2014,08,09,00,14,14.00
2014,08,09,00,15,14.10
2014,08,09,00,16,14.10
2014,08,09,00,17,14.10
2014,08,09,00,18,14.10
2014,08,09,00,19,14.10
2014,08,09,00,20,14.10
2014,08,09,00,21,14.10
2014,08,09,00,22,14.10
2014,08,09,00,23,14.10
2014,08,09,00,24,14.10
2014,08,09,00,25,14.10
2014,08,09,00,26,14.10
2014,08,09,00,27,14.10
2014,08,09,00,28,14.10
2014,08,09,00,29,14.10
2014,08,09,00,30,14.10
2014,08,09,00,31,14.10
2014,08,09,00,32,14.10
2014,08,09,00,33,14.10
2014,08,09,00,34,14.10
2014,08,09,00,35,14.10
2014,08,09,00,36,14.10
2014,08,09,00,37,14.10
2014,08,09,00,38,14.10
2014,08,09,00,39,14.10
2014,08,09,00,40,14.10
2014,08,09,00,41,14.10
2014,08,09,00,42,14.10
2014,08,09,00,43,14.10
2014,08,09,00,44,14.10
2014,08,09,00,45,14.10
2014,08,09,00,46,14.10
2014,08,09,00,47,14.10
2014,08,09,00,48,14.10
2014,08,09,00,49,14.10
2014,08,09,00,50,14.10
2014,08,09,00,51,14.10
2014,08,09,00,52,14.10
2014,08,09,00,53,14.10
2014,08,09,00,54,14.10
2014,08,09,00,55,14.10
2014,08,09,00,56,14.10
2014,08,09,00,57,14.10
2014,08,09,00,58,14.10
2014,08,09,00,59,14.10
2014,08,09,01,00,14.10
2014,08,09,01,01,14.10
2014,08,09,01,02,14.10
2014,08,09,01,03,14.10
2014,08,09,01,04,14.10
2014,08,09,01,05,14.10
2014,08,09,01,06,14.20
2014,08,09,01,07,14.20
2014,08,09,01,08,14.20
2014,08,09,01,09,14.20
2014,08,09,01,10,14.20
2014,08,09,01,11,14.20
2014,08,09,01,12,14.20
2014,08,09,01,13,14.20
2014,08,09,01,14,14.20
2014,08,09,01,15,14.20
2014,08,09,01,16,14.20
2014,08,09,01,17,14.20
2014,08,09,01,18,14.20
2014,08,09,01,19,14.20
2014,08,09,01,20,14.20
2014,08,09,01,21,14.20
2014,08,09,01,22,14.10
2014,08,09,01,23,14.10
2014,08,09,01,24,14.10
2014,08,09,01,25,14.10
2014,08,09,01,26,14.10
2014,08,09,01,27,14.10
2014,08,09,01,28,14.10
2014,08,09,01,29,14.10
2014,08,09,01,30,14.10
2014,08,09,01,31,14.10
2014,08,09,01,32,14.10
2014,08,09,01,33,14.20
2014,08,09,01,34,14.20
2014,08,09,01,35,14.20
2014,08,09,01,36,14.20
2014,08,09,01,37,14.20
2014,08,09,01,38,14.20
2014,08,09,01,39,14.20
2014,08,09,01,40,14.20
2014,08,09,01,41,14.20
2014,08,09,01,42,14.20
2014,08,09,01,43,14.20
2014,08,09,01,44,14.20
2014,08,09,01,45,14.20
2014,08,09,01,46,14.10
2014,08,09,01,47,14.10
2014,08,09,01,48,14.10
2014,08,09,01,49,14.10
2014,08,09,01,50,14.10
2014,08,09,01,51,14.20
2014,08,09,01,52,14.20
2014,08,09,01,53,14.20
2014,08,09,01,54,14.20
2014,08,09,01,55,14.20
2014,08,09,01,56,14.20
2014,08,09,01,57,14.20
2014,08,09,01,58,14.20
2014,08,09,01,59,14.20
2014,08,09,02,00,14.20
2014,08,09,02,01,14.20
2014,08,09,02,02,14.20
2014,08,09,02,03,14.20
2014,08,09,02,04,14.20
2014,08,09,02,05,14.20
2014,08,09,02,06,14.20
2014,08,09,02,07,14.20
2014,08,09,02,08,14.20
2014,08,09,02,09,14.20
2014,08,09,02,10,14.20
2014,08,09,02,11,14.20
2014,08,09,02,12,14.10
2014,08,09,02,13,14.10
2014,08,09,02,14,14.10
2014,08,09,02,15,14.10
2014,08,09,02,16,14.10
2014,08,09,02,17,14.10
2014,08,09,02,18,14.00
2014,08,09,02,19,14.00
2014,08,09,02,20,14.00
2014,08,09,02,21,14.00
2014,08,09,02,22,14.00
2014,08,09,02,23,14.00
2014,08,09,02,24,14.00
2014,08,09,02,25,14.00
2014,08,09,02,26,14.00
2014,08,09,02,27,13.90
2014,08,09,02,28,13.90
2014,08,09,02,29,13.90
2014,08,09,02,30,13.90
2014,08,09,02,31,13.90
2014,08,09,02,32,13.90
2014,08,09,02,33,13.90
2014,08,09,02,34,13.90
2014,08,09,02,35,13.90
2014,08,09,02,36,13.90
2014,08,09,02,37,13.90
2014,08,09,02,38,13.90
2014,08,09,02,39,13.80
2014,08,09,02,40,13.80
2014,08,09,02,41,13.80
2014,08,09,02,42,13.80
2014,08,09,02,43,13.80
2014,08,09,02,44,13.80
2014,08,09,02,45,13.80
2014,08,09,02,46,13.80
2014,08,09,02,47,13.80
2014,08,09,02,48,13.80
2014,08,09,02,49,13.70
2014,08,09,02,50,13.70
2014,08,09,02,51,13.70
2014,08,09,02,52,13.70
2014,08,09,02,53,13.70
2014,08,09,02,54,13.70
2014,08,09,02,55,13.70
2014,08,09,02,56,13.70
2014,08,09,02,57,13.70
2014,08,09,02,58,13.70
2014,08,09,02,59,13.70
2014,08,09,03,00,13.70
2014,08,09,03,01,13.60
2014,08,09,03,02,13.60
2014,08,09,03,03,13.60
2014,08,09,03,04,13.60
2014,08,09,03,05,13.60
2014,08,09,03,06,13.60
2014,08,09,03,07,13.60
2014,08,09,03,08,13.50
2014,08,09,03,09,13.50
2014,08,09,03,10,13.50
2014,08,09,03,11,13.50
2014,08,09,03,12,13.50
2014,08,09,03,13,13.40
2014,08,09,03,14,13.40
2014,08,09,03,15,13.40
2014,08,09,03,16,13.40
2014,08,09,03,17,13.40
2014,08,09,03,18,13.30
2014,08,09,03,19,13.30
2014,08,09,03,20,13.30
2014,08,09,03,21,13.30
2014,08,09,03,22,13.30
2014,08,09,03,23,13.30
2014,08,09,03,24,13.30
2014,08,09,03,25,13.30
2014,08,09,03,26,13.30
2014,08,09,03,27,13.30
2014,08,09,03,28,13.30
2014,08,09,03,29,13.30
2014,08,09,03,30,13.30
2014,08,09,03,31,13.20
2014,08,09,03,32,13.20
2014,08,09,03,33,13.20
2014,08,09,03,34,13.20
2014,08,09,03,35,13.20
2014,08,09,03,36,13.20
2014,08,09,03,37,13.20
2014,08,09,03,38,13.20
2014,08,09,03,39,13.20
2014,08,09,03,40,13.20
2014,08,09,03,41,13.20
2014,08,09,03,42,13.20
2014,08,09,03,43,13.20
2014,08,09,03,44,13.20
2014,08,09,03,45,13.20
2014,08,09,03,46,13.20
2014,08,09,03,47,13.20
2014,08,09,03,48,13.20
2014,08,09,03,49,13.20
2014,08,09,03,50,13.20
2014,08,09,03,51,13.20
2014,08,09,03,52,13.20
2014,08,09,03,53,13.20
2014,08,09,03,54,13.10
2014,08,09,03,55,13.10
2014,08,09,03,56,13.10
2014,08,09,03,57,13.10
2014,08,09,03,58,13.10
2014,08,09,03,59,13.10
2014,08,09,04,00,13.20
2014,08,09,04,01,13.20
2014,08,09,04,02,13.20
2014,08,09,04,03,13.20
2014,08,09,04,04,13.20
2014,08,09,04,05,13.20
2014,08,09,04,06,13.20
2014,08,09,04,07,13.20
2014,08,09,04,08,13.20
2014,08,09,04,09,13.20
2014,08,09,04,10,13.20
2014,08,09,04,11,13.20
2014,08,09,04,12,13.20
2014,08,09,04,13,13.20
2014,08,09,04,14,13.20
2014,08,09,04,15,13.20
2014,08,09,04,16,13.20
2014,08,09,04,17,13.20
2014,08,09,04,18,13.20
2014,08,09,04,19,13.20
2014,08,09,04,20,13.20
2014,08,09,04,21,13.20
2014,08,09,04,22,13.10
2014,08,09,04,23,13.10
2014,08,09,04,24,13.10
2014,08,09,04,25,13.10
2014,08,09,04,26,13.10
2014,08,09,04,27,13.10
2014,08,09,04,28,13.10
2014,08,09,04,29,13.10
2014,08,09,04,30,13.10
2014,08,09,04,31,13.10
2014,08,09,04,32,13.10
2014,08,09,04,33,13.10
2014,08,09,04,34,13.10
2014,08,09,04,35,13.10
2014,08,09,04,36,13.10
2014,08,09,04,37,13.10
2014,08,09,04,38,13.10
2014,08,09,04,39,13.00
2014,08,09,04,40,13.00
2014,08,09,04,41,13.00
2014,08,09,04,42,13.00
2014,08,09,04,43,13.00
2014,08,09,04,44,12.90
2014,08,09,04,45,12.90
2014,08,09,04,46,12.90
2014,08,09,04,47,12.90
2014,08,09,04,48,12.90
2014,08,09,04,49,12.90
2014,08,09,04,50,12.90
2014,08,09,04,51,12.90
2014,08,09,04,52,12.80
2014,08,09,04,53,12.80
2014,08,09,04,54,12.80
2014,08,09,04,55,12.80
2014,08,09,04,56,12.80
2014,08,09,04,57,12.80
2014,08,09,04,58,12.80
2014,08,09,04,59,12.80
2014,08,09,05,00,12.80
2014,08,09,05,01,12.80
2014,08,09,05,02,12.80
2014,08,09,05,03,12.80
2014,08,09,05,04,12.80
2014,08,09,05,05,12.70
2014,08,09,05,06,12.70
2014,08,09,05,07,12.70
2014,08,09,05,08,12.70
2014,08,09,05,09,12.70
2014,08,09,05,10,12.70
2014,08,09,05,11,12.60
2014,08,09,05,12,12.60
2014,08,09,05,13,12.60
2014,08,09,05,14,12.60
2014,08,09,05,15,12.60
2014,08,09,05,16,12.60
2014,08,09,05,17,12.60
2014,08,09,05,18,12.60
2014,08,09,05,19,12.60
2014,08,09,05,20,12.60
2014,08,09,05,21,12.60
2014,08,09,05,22,12.60
2014,08,09,05,23,12.60
2014,08,09,05,24,12.60
2014,08,09,05,25,12.60
2014,08,09,05,26,12.60
2014,08,09,05,27,12.60
2014,08,09,05,28,12.60
2014,08,09,05,29,12.60
2014,08,09,05,30,12.60
2014,08,09,05,31,12.60
2014,08,09,05,32,12.60
2014,08,09,05,33,12.60
2014,08,09,05,34,12.60
2014,08,09,05,35,12.60
2014,08,09,05,36,12.60
2014,08,09,05,37,12.50
2014,08,09,05,38,12.50
2014,08,09,05,39,12.50
2014,08,09,05,40,12.50
2014,08,09,05,41,12.50
2014,08,09,05,42,12.40
2014,08,09,05,43,12.40
2014,08,09,05,44,12.40
2014,08,09,05,45,12.40
2014,08,09,05,46,12.40
2014,08,09,05,47,12.40
2014,08,09,05,48,12.40
2014,08,09,05,49,12.40
2014,08,09,05,50,12.40
2014,08,09,05,51,12.40
2014,08,09,05,52,12.40
2014,08,09,05,53,12.40
2014,08,09,05,54,12.40
2014,08,09,05,55,12.40
2014,08,09,05,56,12.40
2014,08,09,05,57,12.40
2014,08,09,05,58,12.40
2014,08,09,05,59,12.40
2014,08,09,06,00,12.40
2014,08,09,06,01,12.30
2014,08,09,06,02,12.30
2014,08,09,06,03,12.30
2014,08,09,06,04,12.30
2014,08,09,06,05,12.30
2014,08,09,06,06,12.30
2014,08,09,06,07,12.30
2014,08,09,06,08,12.30
2014,08,09,06,09,12.30
2014,08,09,06,10,12.30
2014,08,09,06,11,12.30
2014,08,09,06,12,12.30
2014,08,09,06,13,12.30
2014,08,09,06,14,12.30
2014,08,09,06,15,12.30
2014,08,09,06,16,12.30
2014,08,09,06,17,12.30
2014,08,09,06,18,12.30
2014,08,09,06,19,12.20
2014,08,09,06,20,12.20
2014,08,09,06,21,12.20
2014,08,09,06,22,12.20
2014,08,09,06,23,12.20
2014,08,09,06,24,12.20
2014,08,09,06,25,12.20
2014,08,09,06,26,12.20
2014,08,09,06,27,12.30
2014,08,09,06,28,12.30
2014,08,09,06,29,12.30
2014,08,09,06,30,12.30
2014,08,09,06,31,12.30
2014,08,09,06,32,12.40
2014,08,09,06,33,12.40
2014,08,09,06,34,12.40
2014,08,09,06,35,12.50
2014,08,09,06,36,12.50
2014,08,09,06,37,12.60
2014,08,09,06,38,12.60
2014,08,09,06,39,12.60
2014,08,09,06,40,12.70
2014,08,09,06,41,12.70
2014,08,09,06,42,12.70
2014,08,09,06,43,12.80
2014,08,09,06,44,12.80
2014,08,09,06,45,12.80
2014,08,09,06,46,12.80
2014,08,09,06,47,12.80
2014,08,09,06,48,12.80
2014,08,09,06,49,12.80
2014,08,09,06,50,12.80
2014,08,09,06,51,12.80
2014,08,09,06,52,12.80
2014,08,09,06,53,12.80
2014,08,09,06,54,12.80
2014,08,09,06,55,12.80
2014,08,09,06,56,12.80
2014,08,09,06,57,12.80
2014,08,09,06,58,12.90
2014,08,09,06,59,12.90
2014,08,09,07,00,12.90
2014,08,09,07,01,12.90
2014,08,09,07,02,12.90
2014,08,09,07,03,13.00
2014,08,09,07,04,13.00
2014,08,09,07,05,13.10
2014,08,09,07,06,13.10
2014,08,09,07,07,13.10
2014,08,09,07,08,13.20
2014,08,09,07,09,13.20
2014,08,09,07,10,13.20
2014,08,09,07,11,13.20
2014,08,09,07,12,13.30
2014,08,09,07,13,13.30
2014,08,09,07,14,13.30
2014,08,09,07,15,13.40
2014,08,09,07,16,13.40
2014,08,09,07,17,13.40
2014,08,09,07,18,13.50
2014,08,09,07,19,13.50
2014,08,09,07,20,13.60
2014,08,09,07,21,13.60
2014,08,09,07,22,13.70
2014,08,09,07,23,13.70
2014,08,09,07,24,13.70
2014,08,09,07,25,13.80
2014,08,09,07,26,13.80
2014,08,09,07,27,13.80
2014,08,09,07,28,13.80
2014,08,09,07,29,13.90
2014,08,09,07,30,13.90
2014,08,09,07,31,13.90
2014,08,09,07,32,13.90
2014,08,09,07,33,13.90
2014,08,09,07,34,13.90
2014,08,09,07,35,13.90
2014,08,09,07,36,13.90
2014,08,09,07,37,13.90
2014,08,09,07,38,13.90
2014,08,09,07,39,13.90
2014,08,09,07,40,14.00
2014,08,09,07,41,14.00
2014,08,09,07,42,14.00
2014,08,09,07,43,14.10
2014,08,09,07,44,14.10
2014,08,09,07,45,14.10
2014,08,09,07,46,14.10
2014,08,09,07,47,14.20
2014,08,09,07,48,14.20
2014,08,09,07,49,14.30
2014,08,09,07,50,14.30
2014,08,09,07,51,14.40
2014,08,09,07,52,14.40
2014,08,09,07,53,14.40
2014,08,09,07,54,14.50
2014,08,09,07,55,14.60
2014,08,09,07,56,14.60
2014,08,09,07,57,14.70
2014,08,09,07,58,14.70
2014,08,09,07,59,14.80
2014,08,09,08,00,14.80
2014,08,09,08,01,14.90
2014,08,09,08,02,15.00
2014,08,09,08,03,15.00
2014,08,09,08,04,15.00
2014,08,09,08,05,15.00
2014,08,09,08,06,15.00
2014,08,09,08,07,15.10
2014,08,09,08,08,15.20
2014,08,09,08,09,15.30
2014,08,09,08,10,15.30
2014,08,09,08,11,15.40
2014,08,09,08,12,15.50
2014,08,09,08,13,15.60
2014,08,09,08,14,15.60
2014,08,09,08,15,15.70
2014,08,09,08,16,15.80
2014,08,09,08,17,15.90
2014,08,09,08,18,16.00
2014,08,09,08,19,16.10
2014,08,09,08,20,16.20
2014,08,09,08,21,16.30
2014,08,09,08,22,16.40
2014,08,09,08,23,16.50
2014,08,09,08,24,16.60
2014,08,09,08,25,16.70
2014,08,09,08,26,16.80
2014,08,09,08,27,16.90
2014,08,09,08,28,17.00
2014,08,09,08,29,17.10
2014,08,09,08,30,17.20
2014,08,09,08,31,17.30
2014,08,09,08,32,17.40
2014,08,09,08,33,17.50
2014,08,09,08,34,17.60
2014,08,09,08,35,17.70
2014,08,09,08,36,17.80
2014,08,09,08,37,17.90
2014,08,09,08,38,18.00
2014,08,09,08,39,18.10
2014,08,09,08,40,18.20
2014,08,09,08,41,18.30
2014,08,09,08,42,18.40
2014,08,09,08,43,18.60
2014,08,09,08,44,18.70
2014,08,09,08,45,18.80
2014,08,09,08,46,19.00
2014,08,09,08,47,19.10
2014,08,09,08,48,19.20
2014,08,09,08,49,19.30
2014,08,09,08,50,19.40
2014,08,09,08,51,19.40
2014,08,09,08,52,19.40
2014,08,09,08,53,19.40
2014,08,09,08,54,19.40
2014,08,09,08,55,19.40
2014,08,09,08,56,19.40
2014,08,09,08,57,19.30
2014,08,09,08,58,19.30
2014,08,09,08,59,19.30
2014,08,09,09,00,19.30
2014,08,09,09,01,19.30
2014,08,09,09,02,19.30
2014,08,09,09,03,19.30
2014,08,09,09,04,19.30
2014,08,09,09,05,19.40
2014,08,09,09,06,19.40
2014,08,09,09,07,19.50
2014,08,09,09,08,19.60
2014,08,09,09,09,19.70
2014,08,09,09,10,19.80
2014,08,09,09,11,19.80
2014,08,09,09,12,19.90
2014,08,09,09,13,19.90
2014,08,09,09,14,20.00
2014,08,09,09,15,20.00
2014,08,09,09,16,20.10
2014,08,09,09,17,20.10
2014,08,09,09,18,20.20
2014,08,09,09,19,20.20
2014,08,09,09,20,20.30
2014,08,09,09,21,20.30
2014,08,09,09,22,20.30
2014,08,09,09,23,20.20
2014,08,09,09,24,20.20
2014,08,09,09,25,20.20
2014,08,09,09,26,20.20
2014,08,09,09,27,20.20
2014,08,09,09,28,20.30
2014,08,09,09,29,20.40
2014,08,09,09,30,20.50
2014,08,09,09,31,20.50
2014,08,09,09,32,20.60
2014,08,09,09,33,20.60
2014,08,09,09,34,20.70
2014,08,09,09,35,20.80
2014,08,09,09,36,20.80
2014,08,09,09,37,20.80
2014,08,09,09,38,20.90
2014,08,09,09,39,20.90
2014,08,09,09,40,21.00
2014,08,09,09,41,21.00
2014,08,09,09,42,21.00
2014,08,09,09,43,20.90
2014,08,09,09,44,20.90
2014,08,09,09,45,20.80
2014,08,09,09,46,20.70
2014,08,09,09,47,20.60
2014,08,09,09,48,20.60
2014,08,09,09,49,20.60
2014,08,09,09,50,20.60
2014,08,09,09,51,20.60
2014,08,09,09,52,20.60
2014,08,09,09,53,20.70
2014,08,09,09,54,20.70
2014,08,09,09,55,20.70
2014,08,09,09,56,20.80
2014,08,09,09,57,20.80
2014,08,09,09,58,20.90
2014,08,09,09,59,21.00
2014,08,09,10,00,21.10
2014,08,09,10,01,21.10
2014,08,09,10,02,21.10
2014,08,09,10,03,21.20
2014,08,09,10,04,21.20
2014,08,09,10,05,21.30
2014,08,09,10,06,21.40
2014,08,09,10,07,21.50
2014,08,09,10,08,21.50
2014,08,09,10,09,21.60
2014,08,09,10,10,21.60
2014,08,09,10,11,21.60
2014,08,09,10,12,21.70
2014,08,09,10,13,21.70
2014,08,09,10,14,21.70
2014,08,09,10,15,21.70
2014,08,09,10,16,21.70
2014,08,09,10,17,21.80
2014,08,09,10,18,21.80
2014,08,09,10,19,21.80
2014,08,09,10,20,21.80
2014,08,09,10,21,21.80
2014,08,09,10,22,21.80
2014,08,09,10,23,21.80
2014,08,09,10,24,21.70
2014,08,09,10,25,21.60
2014,08,09,10,26,21.50
2014,08,09,10,27,21.40
2014,08,09,10,28,21.30
2014,08,09,10,29,21.30
2014,08,09,10,30,21.30
2014,08,09,10,31,21.30
2014,08,09,10,32,21.30
2014,08,09,10,33,21.30
2014,08,09,10,34,21.30
2014,08,09,10,35,21.30
2014,08,09,10,36,21.40
2014,08,09,10,37,21.40
2014,08,09,10,38,21.40
2014,08,09,10,39,21.40
2014,08,09,10,40,21.50
2014,08,09,10,41,21.60
2014,08,09,10,42,21.70
2014,08,09,10,43,21.80
2014,08,09,10,44,21.90
2014,08,09,10,45,22.10
2014,08,09,10,46,22.10
2014,08,09,10,47,22.20
2014,08,09,10,48,22.30
2014,08,09,10,49,22.20
2014,08,09,10,50,22.20
2014,08,09,10,51,22.20
2014,08,09,10,52,22.30
2014,08,09,10,53,22.30
2014,08,09,10,54,22.30
2014,08,09,10,55,22.20
2014,08,09,10,56,22.10
2014,08,09,10,57,21.90
2014,08,09,10,58,21.90
2014,08,09,10,59,21.80
2014,08,09,11,00,21.90
2014,08,09,11,01,22.00
2014,08,09,11,02,22.10
2014,08,09,11,03,22.10
2014,08,09,11,04,22.30
2014,08,09,11,05,22.40
2014,08,09,11,06,22.50
2014,08,09,11,07,22.50
2014,08,09,11,08,22.60
2014,08,09,11,09,22.50
2014,08,09,11,10,22.50
2014,08,09,11,11,22.50
2014,08,09,11,12,22.50
2014,08,09,11,13,22.50
2014,08,09,11,14,22.50
2014,08,09,11,15,22.60
2014,08,09,11,16,22.60
2014,08,09,11,17,22.60
2014,08,09,11,18,22.60
2014,08,09,11,19,22.60
2014,08,09,11,20,22.60
2014,08,09,11,21,22.50
2014,08,09,11,22,22.50
2014,08,09,11,23,22.50
2014,08,09,11,24,22.60
2014,08,09,11,25,22.70
2014,08,09,11,26,22.70
2014,08,09,11,27,22.70
2014,08,09,11,28,22.60
2014,08,09,11,29,22.50
2014,08,09,11,30,22.30
2014,08,09,11,31,22.20
2014,08,09,11,32,22.10
2014,08,09,11,33,22.00
2014,08,09,11,34,22.00
2014,08,09,11,35,22.00
2014,08,09,11,36,21.90
2014,08,09,11,37,21.90
2014,08,09,11,38,22.00
2014,08,09,11,39,22.00
2014,08,09,11,40,22.10
2014,08,09,11,41,22.20
2014,08,09,11,42,22.30
2014,08,09,11,43,22.40
2014,08,09,11,44,22.50
2014,08,09,11,45,22.70
2014,08,09,11,46,22.90
2014,08,09,11,47,22.90
2014,08,09,11,48,22.90
2014,08,09,11,49,22.90
2014,08,09,11,50,23.00
2014,08,09,11,51,23.00
2014,08,09,11,52,23.10
2014,08,09,11,53,23.20
2014,08,09,11,54,23.20
2014,08,09,11,55,23.20
2014,08,09,11,56,23.20
2014,08,09,11,57,23.10
2014,08,09,11,58,23.00
2014,08,09,11,59,22.90
2014,08,09,12,00,22.70
2014,08,09,12,01,22.70
2014,08,09,12,02,22.80
2014,08,09,12,03,22.80
2014,08,09,12,04,22.90
2014,08,09,12,05,22.90
2014,08,09,12,06,22.90
2014,08,09,12,07,22.90
2014,08,09,12,08,23.00
2014,08,09,12,09,23.00
2014,08,09,12,10,23.10
2014,08,09,12,11,23.10
2014,08,09,12,12,23.10
2014,08,09,12,13,23.00
2014,08,09,12,14,22.90
2014,08,09,12,15,23.00
2014,08,09,12,16,23.10
2014,08,09,12,17,23.10
2014,08,09,12,18,23.10
2014,08,09,12,19,23.10
2014,08,09,12,20,23.10
2014,08,09,12,21,23.20
2014,08,09,12,22,23.30
2014,08,09,12,23,23.30
2014,08,09,12,24,23.30
2014,08,09,12,25,23.30
2014,08,09,12,26,23.40
2014,08,09,12,27,23.40
2014,08,09,12,28,23.40
2014,08,09,12,29,23.40
2014,08,09,12,30,23.50
2014,08,09,12,31,23.60
2014,08,09,12,32,23.60
2014,08,09,12,33,23.60
2014,08,09,12,34,23.70
2014,08,09,12,35,23.70
2014,08,09,12,36,23.80
2014,08,09,12,37,23.70
2014,08,09,12,38,23.60
2014,08,09,12,39,23.50
2014,08,09,12,40,23.40
2014,08,09,12,41,23.30
2014,08,09,12,42,23.30
2014,08,09,12,43,23.30
2014,08,09,12,44,23.40
2014,08,09,12,45,23.50
2014,08,09,12,46,23.60
2014,08,09,12,47,23.70
2014,08,09,12,48,23.80
2014,08,09,12,49,23.80
2014,08,09,12,50,23.80
2014,08,09,12,51,23.80
2014,08,09,12,52,23.80
2014,08,09,12,53,23.80
2014,08,09,12,54,23.90
2014,08,09,12,55,23.90
2014,08,09,12,56,24.00
2014,08,09,12,57,24.00
2014,08,09,12,58,24.00
2014,08,09,12,59,24.00
2014,08,09,13,00,24.00
2014,08,09,13,01,23.90
2014,08,09,13,02,23.70
2014,08,09,13,03,23.50
2014,08,09,13,04,23.40
2014,08,09,13,05,23.30
2014,08,09,13,06,23.30
2014,08,09,13,07,23.20
2014,08,09,13,08,23.00
2014,08,09,13,09,23.00
2014,08,09,13,10,23.00
2014,08,09,13,11,23.10
2014,08,09,13,12,23.20
2014,08,09,13,13,23.30
2014,08,09,13,14,23.40
2014,08,09,13,15,23.40
2014,08,09,13,16,23.40
2014,08,09,13,17,23.30
2014,08,09,13,18,23.20
2014,08,09,13,19,23.20
2014,08,09,13,20,23.10
2014,08,09,13,21,23.10
2014,08,09,13,22,23.10
2014,08,09,13,23,23.00
2014,08,09,13,24,23.10
2014,08,09,13,25,23.10
2014,08,09,13,26,23.30
2014,08,09,13,27,23.40
2014,08,09,13,28,23.50
2014,08,09,13,29,23.60
2014,08,09,13,30,23.60
2014,08,09,13,31,23.70
2014,08,09,13,32,23.70
2014,08,09,13,33,23.70
2014,08,09,13,34,23.80
2014,08,09,13,35,23.80
2014,08,09,13,36,23.90
2014,08,09,13,37,23.90
2014,08,09,13,38,24.00
2014,08,09,13,39,24.10
2014,08,09,13,40,24.20
2014,08,09,13,41,24.30
2014,08,09,13,42,24.40
2014,08,09,13,43,24.40
2014,08,09,13,44,24.50
2014,08,09,13,45,24.50
2014,08,09,13,46,24.50
2014,08,09,13,47,24.50
2014,08,09,13,48,24.40
2014,08,09,13,49,24.40
2014,08,09,13,50,24.40
2014,08,09,13,51,24.30
2014,08,09,13,52,24.30
2014,08,09,13,53,24.30
2014,08,09,13,54,24.40
2014,08,09,13,55,24.50
2014,08,09,13,56,24.60
2014,08,09,13,57,24.60
2014,08,09,13,58,24.60
2014,08,09,13,59,24.70
2014,08,09,14,00,24.60
2014,08,09,14,01,24.60
2014,08,09,14,02,24.50
2014,08,09,14,03,24.40
2014,08,09,14,04,24.40
2014,08,09,14,05,24.40
2014,08,09,14,06,24.30
2014,08,09,14,07,24.30
2014,08,09,14,08,24.30
2014,08,09,14,09,24.30
2014,08,09,14,10,24.30
2014,08,09,14,11,24.40
2014,08,09,14,12,24.40
2014,08,09,14,13,24.40
2014,08,09,14,14,24.30
2014,08,09,14,15,24.30
2014,08,09,14,16,24.30
2014,08,09,14,17,24.40
2014,08,09,14,18,24.50
2014,08,09,14,19,24.60
2014,08,09,14,20,24.70
2014,08,09,14,21,24.70
2014,08,09,14,22,24.60
2014,08,09,14,23,24.60
2014,08,09,14,24,24.70
2014,08,09,14,25,24.70
2014,08,09,14,26,24.70
2014,08,09,14,27,24.60
2014,08,09,14,28,24.70
2014,08,09,14,29,24.70
2014,08,09,14,30,24.70
2014,08,09,14,31,24.70
2014,08,09,14,32,24.80
2014,08,09,14,33,24.90
2014,08,09,14,34,24.90
2014,08,09,14,35,24.90
2014,08,09,14,36,25.00
2014,08,09,14,37,25.00
2014,08,09,14,38,25.10
2014,08,09,14,39,25.10
2014,08,09,14,40,25.10
2014,08,09,14,41,25.00
2014,08,09,14,42,25.00
2014,08,09,14,43,25.00
2014,08,09,14,44,24.90
2014,08,09,14,45,24.90
2014,08,09,14,46,25.00
2014,08,09,14,47,25.00
2014,08,09,14,48,25.10
2014,08,09,14,49,25.10
2014,08,09,14,50,25.20
2014,08,09,14,51,25.20
2014,08,09,14,52,25.30
2014,08,09,14,53,25.40
2014,08,09,14,54,25.40
2014,08,09,14,55,25.40
2014,08,09,14,56,25.40
2014,08,09,14,57,25.40
2014,08,09,14,58,25.30
2014,08,09,14,59,25.30
2014,08,09,15,00,25.30
2014,08,09,15,01,25.20
2014,08,09,15,02,25.20
2014,08,09,15,03,25.10
2014,08,09,15,04,25.10
2014,08,09,15,05,25.10
2014,08,09,15,06,25.10
2014,08,09,15,07,25.20
2014,08,09,15,08,25.20
2014,08,09,15,09,25.40
2014,08,09,15,10,25.40
2014,08,09,15,11,25.40
2014,08,09,15,12,25.30
2014,08,09,15,13,25.30
2014,08,09,15,14,25.40
2014,08,09,15,15,25.40
2014,08,09,15,16,25.40
2014,08,09,15,17,25.40
2014,08,09,15,18,25.30
2014,08,09,15,19,25.30
2014,08,09,15,20,25.30
2014,08,09,15,21,25.40
2014,08,09,15,22,25.50
2014,08,09,15,23,25.60
2014,08,09,15,24,25.70
2014,08,09,15,25,25.90
2014,08,09,15,26,25.90
2014,08,09,15,27,25.90
2014,08,09,15,28,25.90
2014,08,09,15,29,25.90
2014,08,09,15,30,25.90
2014,08,09,15,31,25.90
2014,08,09,15,32,25.90
2014,08,09,15,33,25.90
2014,08,09,15,34,25.90
2014,08,09,15,35,25.90
2014,08,09,15,36,25.80
2014,08,09,15,37,25.90
2014,08,09,15,38,25.80
2014,08,09,15,39,25.80
2014,08,09,15,40,25.70
2014,08,09,15,41,25.70
2014,08,09,15,42,25.70
2014,08,09,15,43,25.60
2014,08,09,15,44,25.60
2014,08,09,15,45,25.60
2014,08,09,15,46,25.70
2014,08,09,15,47,25.80
2014,08,09,15,48,25.90
2014,08,09,15,49,25.90
2014,08,09,15,50,25.90
2014,08,09,15,51,25.90
2014,08,09,15,52,25.80
2014,08,09,15,53,25.70
2014,08,09,15,54,25.70
2014,08,09,15,55,25.70
2014,08,09,15,56,25.80
2014,08,09,15,57,25.80
2014,08,09,15,58,25.80
2014,08,09,15,59,25.80
2014,08,09,16,00,25.80
2014,08,09,16,01,25.80
2014,08,09,16,02,25.80
2014,08,09,16,03,25.80
2014,08,09,16,04,25.90
2014,08,09,16,05,26.00
2014,08,09,16,06,26.10
2014,08,09,16,07,26.00
2014,08,09,16,08,26.00
2014,08,09,16,09,25.90
2014,08,09,16,10,25.90
2014,08,09,16,11,25.90
2014,08,09,16,12,25.90
2014,08,09,16,13,25.90
2014,08,09,16,14,25.90
2014,08,09,16,15,25.90
2014,08,09,16,16,25.90
2014,08,09,16,17,25.90
2014,08,09,16,18,25.90
2014,08,09,16,19,25.90
2014,08,09,16,20,25.80
2014,08,09,16,21,25.80
2014,08,09,16,22,25.80
2014,08,09,16,23,25.80
2014,08,09,16,24,25.80
2014,08,09,16,25,25.90
2014,08,09,16,26,25.90
2014,08,09,16,27,25.90
2014,08,09,16,28,25.90
2014,08,09,16,29,25.80
2014,08,09,16,30,25.80
2014,08,09,16,31,25.80
2014,08,09,16,32,25.80
2014,08,09,16,33,25.80
2014,08,09,16,34,25.70
2014,08,09,16,35,25.60
2014,08,09,16,36,25.60
2014,08,09,16,37,25.50
2014,08,09,16,38,25.40
2014,08,09,16,39,25.30
2014,08,09,16,40,25.10
2014,08,09,16,41,25.10
2014,08,09,16,42,25.10
2014,08,09,16,43,25.10
2014,08,09,16,44,25.10
2014,08,09,16,45,25.10
2014,08,09,16,46,25.10
2014,08,09,16,47,25.10
2014,08,09,16,48,25.20
2014,08,09,16,49,25.30
2014,08,09,16,50,25.30
2014,08,09,16,51,25.30
2014,08,09,16,52,25.40
2014,08,09,16,53,25.50
2014,08,09,16,54,25.50
2014,08,09,16,55,25.60
2014,08,09,16,56,25.60
2014,08,09,16,57,25.60
2014,08,09,16,58,25.70
2014,08,09,16,59,25.70
2014,08,09,17,00,25.70
2014,08,09,17,01,25.80
2014,08,09,17,02,25.90
2014,08,09,17,03,25.90
2014,08,09,17,04,25.90
2014,08,09,17,05,26.00
2014,08,09,17,06,26.00
2014,08,09,17,07,25.90
2014,08,09,17,08,25.90
2014,08,09,17,09,25.90
2014,08,09,17,10,25.90
2014,08,09,17,11,25.90
2014,08,09,17,12,25.90
2014,08,09,17,13,25.90
2014,08,09,17,14,25.90
2014,08,09,17,15,26.00
2014,08,09,17,16,26.00
2014,08,09,17,17,26.10
2014,08,09,17,18,26.10
2014,08,09,17,19,26.20